Flag for Isle of Man Weather past 2 weeks in Ramsey, Isle of Man

Now
55 °F

Partly sunny.


Feels Like: 52 °F
Forecast: 49 / 54 °F
Wind: 12 mph from Northwest

Location: Isle Of Man / Ronaldsway Airport

Current Time: May 24, 2015 at 3:10:27 PM

Latest Report: May 24, 2015 at 2:20 PM


Visibility: N/A

Pressure: 30.12 "Hg

Humidity: 63%

Dew point: 43 °F

Location of RamseyLocation

Historic Weather in Ramsey — Graph

°F

Ramsey temperature yesterday

Maximum temperature yesterday: 57 °F (at 2:50 PM)
Minimum temperature yesterday: 48 °F (at 1:50 AM)
Average temperature yesterday: 52 °F

Past Weeks' High & Low Weather Summary

 TemperatureHumidityPressure
High59 °F (May 22, 4:20 PM)100% (May 10, 2:50 AM)30.30 "Hg (May 10, 2:50 AM)
Low41 °F (May 13, 4:50 AM)51% (May 16, 12:20 PM)29.45 "Hg (May 18, 6:50 PM)
Average51 °F80%30.01 "Hg
* Reported May 9 1:20 PM — May 24 1:50 PM, Ramsey, Weather by CustomWeather, © 2015

Note: Actual official high and low records may vary slightly from our data, if they occured in-between our weather recording intervals... More about our weather records

Advertising

Ramsey weather history for previous 24 hours

 ConditionsComfort  
Time TempWeatherWind HumidityBarometerVisibility
1:50 PM
Sun, May 24
55 °FPartly sunny.13 mph59%30.12 "HgN/A
1:20 PM55 °FPartly sunny.13 mph63%30.12 "HgN/A
12:50 PM55 °FPartly sunny.13 mph63%30.12 "HgN/A
12:20 PM55 °FScattered clouds.15 mph63%30.09 "HgN/A
11:50 AM54 °FScattered clouds.15 mph67%30.12 "HgN/A
11:20 AM54 °FScattered clouds.13 mph67%30.12 "HgN/A
10:50 AM54 °FPassing clouds.12 mph67%30.09 "HgN/A
10:20 AM52 °FScattered clouds.8 mph67%30.09 "HgN/A
9:50 AM52 °FPartly sunny.10 mph72%30.09 "HgN/A
9:20 AM50 °FPartly sunny.9 mph76%30.09 "HgN/A
8:50 AM50 °FScattered clouds.13 mph82%30.09 "HgN/A
8:20 AM52 °FPartly sunny.12 mph82%30.07 "HgN/A
7:50 AM50 °FDrizzle. Broken clouds.15 mph94%30.07 "HgN/A
7:20 AM50 °FBroken clouds.13 mph94%30.07 "HgN/A
6:50 AM50 °FBroken clouds.14 mph94%30.07 "HgN/A
6:20 AM50 °FBroken clouds.14 mph100%30.04 "HgN/A
5:50 AM54 °FPassing clouds.14 mph94%30.04 "HgN/A
4:50 AM54 °FPassing clouds.10 mph100%30.04 "HgN/A
3:50 AM52 °FRain. Mostly cloudy.10 mph100%30.04 "Hg2 mi
2:50 AM52 °FRain. Low clouds.9 mph100%30.04 "Hg2 mi
1:50 AM52 °FLight rain. Low clouds.10 mph94%30.07 "Hg4 mi
12:50 AM50 °FLight rain. Mostly cloudy.7 mph100%30.09 "Hg5 mi
11:50 PM
Sat, May 23
50 °FLight rain. Mostly cloudy.7 mph100%30.12 "HgN/A
10:50 PM52 °FPassing clouds.5 mph88%30.15 "HgN/A
9:50 PM50 °FPartly sunny.3 mph94%30.15 "HgN/A
8:50 PM52 °FPartly sunny.6 mph82%30.15 "HgN/A
8:20 PM50 °FScattered clouds.6 mph88%30.18 "HgN/A
7:50 PM52 °FPassing clouds.6 mph82%30.18 "HgN/A
7:20 PM52 °FPassing clouds.8 mph82%30.18 "HgN/A
6:50 PM52 °FPassing clouds.6 mph88%30.18 "HgN/A
6:20 PM52 °FPassing clouds.6 mph88%30.21 "HgN/A
5:50 PM52 °FPassing clouds.9 mph88%30.21 "HgN/A
5:20 PM54 °FPassing clouds.8 mph82%30.21 "HgN/A
4:50 PM54 °FPassing clouds.8 mph77%30.24 "HgN/A
4:20 PM54 °FPassing clouds.10 mph77%30.24 "HgN/A
3:50 PM55 °FPassing clouds.12 mph72%30.24 "HgN/A
3:20 PM55 °FPassing clouds.12 mph67%30.27 "HgN/A
Weather by CustomWeather, © 2015

See weather overviewHow to use our weather pages